Weather in Haapsalu

Estonia     58°56′29″N   23°32′28″E
temp.,
°C
wind,
m/s
gust,
m/s
humid.,
%
clouds,
%
prec.,
mm/h
press.,
hPa
HPBL,
m
19 april, mon
mon1900:00+6ene48634 0.0 1028105
03:00+4ene36745 0.0 102872
06:00+4ene35795 0.0 102763
09:00+7ene45680 0.0 1028112
12:00+10ene35541 0.0 1027482
15:00+12ne45505 0.0 1026658
18:00+11nne68577 0.0 1025556
21:00+8ene586836 0.0 1026124
20 april, tue
tue2000:00+6ene457774 0.0 102583
03:00+5ene347497 0.0 102450
06:00+5ene3377100 0.0 102340
09:00+7e347176 0.0 1022128
12:00+9ne236179 0.0 1020485
15:00+10n555676 0.0 1018611
18:00+9nne5758100 0.0 1016418
21:00+8e3565100 0.0 1015111
21 april, wed
wed2100:00+7se4663100 0.0 1014132
03:00+5se3473100 0.0 101252
06:00+4se3378100 0.0 101039
09:00+5sse357437 0.0 1008180
12:00+6ssw447520 0.0 1006476
15:00+6ssw44732 0.0 1004547
18:00+7sw34715 0.0 1003354
21:00+5s23795 0.0 100222
22 april, thu
thu2200:00+4s488779 0.0 1000136
03:00+4s589212 0.0 1000193
06:00+3s59885 0.0 1000277
09:00+4s69784 0.0 1001483
12:00+5s7107439 0.0 1002777
15:00+5s7107866 0.2 1003727
18:00+3s699276 0.9 1004451
21:00+4s588915 0.9 1004265
23 april, fri
fri2300:00+3s5787100 0.1 1004583
03:00+3ssw4593100 0.1 1004320
06:00+2sw3497100 0.1 1004307
09:00+2w2395100 0.3 1005391
12:00+2nw101282100 0.4 1007956
15:00+3wnw10137293 0.5 10091271
18:00+3wnw811665 0.0 10111340
21:00+3w810674 0.0 1011983